Time,TemperatureF,DewpointF,PressureIn,WindDirection,WindDirectionDegrees,WindSpeedMPH,WindSpeedGustMPH,Humidity,HourlyPrecipIn,Conditions,Clouds,dailyrainin,SoftwareType,DateUTC
2013-09-07 00:04:00,49.1,48.6,29.41,NE,45,0.0,0.0,98,0.00,RA,,0.00,WeatherDisplay:10.37,2013-09-07 08:04:00,
2013-09-07 00:09:00,49.1,48.6,29.41,NE,45,0.0,0.0,98,0.00,RA,,0.00,WeatherDisplay:10.37,2013-09-07 08:09:00,
2013-09-07 00:14:00,49.1,48.6,29.44,NE,45,0.0,0.0,98,0.00,CLR,,0.00,WeatherDisplay:10.37,2013-09-07 08:14:00,
2013-09-07 00:19:00,49.1,48.6,29.44,NE,45,0.0,0.0,98,0.00,CLR,,0.00,WeatherDisplay:10.37,2013-09-07 08:19:00,
2013-09-07 00:24:00,49.1,48.6,29.44,NE,45,0.0,0.0,98,0.00,CLR,,0.00,WeatherDisplay:10.37,2013-09-07 08:24:00,
2013-09-07 00:29:00,49.1,48.6,29.44,NE,45,0.0,0.0,98,0.00,CLR,,0.00,WeatherDisplay:10.37,2013-09-07 08:29:00,
2013-09-07 00:34:00,49.3,48.7,29.44,NNE,22,1.1,1.6,98,0.00,CLR,,0.00,WeatherDisplay:10.37,2013-09-07 08:34:00,
2013-09-07 00:39:00,49.3,48.7,29.44,NNE,22,2.3,2.3,98,0.00,CLR,,0.00,WeatherDisplay:10.37,2013-09-07 08:39:00,
2013-09-07 00:44:00,49.3,48.7,29.44,WNW,292,2.3,0.0,98,0.00,CLR,,0.00,WeatherDisplay:10.37,2013-09-07 08:44:00,
2013-09-07 00:49:00,49.3,48.7,29.44,NNE,22,2.3,2.3,98,0.00,CLR,,0.00,WeatherDisplay:10.37,2013-09-07 08:49:00,
2013-09-07 00:54:00,49.3,48.7,29.44,North,0,2.4,2.4,98,0.00,CLR,,0.00,WeatherDisplay:10.37,2013-09-07 08:54:00,
2013-09-07 00:59:00,49.3,48.7,29.41,NE,45,3.5,3.5,98,0.00,CLR,,0.00,WeatherDisplay:10.37,2013-09-07 08:59:00,
2013-09-07 01:04:00,49.3,48.7,29.41,North,0,2.9,2.9,98,0.00,CLR,,0.00,WeatherDisplay:10.37,2013-09-07 09:04:00,
2013-09-07 01:09:00,49.3,48.7,29.41,North,0,2.9,2.9,98,0.00,CLR,,0.00,WeatherDisplay:10.37,2013-09-07 09:09:00,
2013-09-07 01:14:00,49.3,48.7,29.41,NNE,22,2.3,2.3,98,0.00,CLR,,0.00,WeatherDisplay:10.37,2013-09-07 09:14:00,
2013-09-07 01:19:00,49.3,48.7,29.41,NNE,22,2.3,2.3,98,0.00,CLR,,0.00,WeatherDisplay:10.37,2013-09-07 09:19:00,
2013-09-07 01:24:00,49.3,48.7,29.41,North,0,2.4,2.4,98,0.00,CLR,,0.00,WeatherDisplay:10.37,2013-09-07 09:24:00,
2013-09-07 01:29:00,49.3,48.7,29.41,North,0,2.4,2.4,98,0.00,CLR,,0.00,WeatherDisplay:10.37,2013-09-07 09:29:00,
2013-09-07 01:34:00,49.3,48.7,29.41,NNE,22,2.4,2.4,98,0.00,CLR,,0.00,WeatherDisplay:10.37,2013-09-07 09:34:00,
2013-09-07 01:39:00,49.3,48.7,29.41,NNW,338,2.4,2.4,98,0.00,CLR,,0.00,WeatherDisplay:10.37,2013-09-07 09:39:00,
2013-09-07 01:44:00,49.3,48.7,29.44,NNW,338,2.4,2.4,98,0.00,CLR,,0.00,WeatherDisplay:10.37,2013-09-07 09:44:00,
2013-09-07 01:49:00,49.3,48.7,29.44,NNE,22,1.1,1.1,98,0.00,CLR,,0.00,WeatherDisplay:10.37,2013-09-07 09:49:00,
2013-09-07 01:54:00,49.3,48.7,29.44,NW,315,0.0,0.0,98,0.00,CLR,,0.00,WeatherDisplay:10.37,2013-09-07 09:54:00,
2013-09-07 01:59:00,49.3,48.7,29.44,NW,315,0.0,0.0,98,0.00,CLR,,0.00,WeatherDisplay:10.37,2013-09-07 09:59:00,
2013-09-07 02:04:00,49.3,48.7,29.44,WNW,292,0.0,0.0,98,0.00,CLR,,0.00,WeatherDisplay:10.37,2013-09-07 10:04:00,
2013-09-07 02:09:00,49.3,48.7,29.44,NW,315,0.0,0.0,98,0.00,CLR,,0.00,WeatherDisplay:10.37,2013-09-07 10:09:00,
2013-09-07 02:14:00,49.3,48.7,29.44,NNW,338,0.0,0.0,98,0.00,CLR,,0.00,WeatherDisplay:10.37,2013-09-07 10:14:00,
2013-09-07 02:19:00,49.3,48.7,29.44,WNW,292,0.0,0.0,98,0.00,CLR,,0.00,WeatherDisplay:10.37,2013-09-07 10:19:00,
2013-09-07 02:24:00,49.3,48.7,29.44,WSW,248,0.0,0.0,98,0.00,CLR,,0.00,WeatherDisplay:10.37,2013-09-07 10:24:00,
2013-09-07 02:29:00,49.3,48.7,29.44,WSW,248,0.0,0.0,98,0.00,CLR,,0.00,WeatherDisplay:10.37,2013-09-07 10:29:00,
2013-09-07 02:34:00,49.3,48.7,29.44,WSW,248,0.0,0.0,98,0.00,CLR,,0.00,WeatherDisplay:10.37,2013-09-07 10:34:00,
2013-09-07 02:39:00,49.3,48.7,29.44,SSW,202,0.0,0.0,98,0.00,CLR,,0.00,WeatherDisplay:10.37,2013-09-07 10:39:00,
2013-09-07 02:44:00,49.1,48.6,29.44,SSW,202,0.0,0.0,98,0.00,CLR,,0.00,WeatherDisplay:10.37,2013-09-07 10:44:00,
2013-09-07 02:49:00,49.1,48.6,29.44,SSW,202,0.0,0.0,98,0.00,CLR,,0.00,WeatherDisplay:10.37,2013-09-07 10:49:00,
2013-09-07 02:54:00,49.1,48.6,29.44,NW,315,2.3,2.3,98,0.00,CLR,,0.00,WeatherDisplay:10.37,2013-09-07 10:54:00,
2013-09-07 02:59:00,49.1,48.6,29.44,West,270,0.0,0.0,98,0.00,CLR,,0.00,WeatherDisplay:10.37,2013-09-07 10:59:00,
2013-09-07 03:04:00,49.1,48.6,29.44,NW,315,2.3,0.0,98,0.00,CLR,,0.00,WeatherDisplay:10.37,2013-09-07 11:04:00,
2013-09-07 03:09:00,49.1,48.6,29.44,SE,135,1.1,0.0,98,0.00,CLR,,0.00,WeatherDisplay:10.37,2013-09-07 11:09:00,
2013-09-07 03:14:00,49.1,48.6,29.44,SSE,158,0.0,0.0,98,0.00,CLR,,0.00,WeatherDisplay:10.37,2013-09-07 11:14:00,
2013-09-07 03:19:00,49.1,48.6,29.44,WNW,292,0.0,0.0,98,0.00,CLR,,0.00,WeatherDisplay:10.37,2013-09-07 11:19:00,
2013-09-07 03:24:00,49.1,48.6,29.44,WNW,292,2.3,2.3,98,0.00,CLR,,0.00,WeatherDisplay:10.37,2013-09-07 11:24:00,
2013-09-07 03:29:00,49.1,48.6,29.44,West,270,0.0,0.0,98,0.00,CLR,,0.00,WeatherDisplay:10.37,2013-09-07 11:29:00,
2013-09-07 03:34:00,49.1,48.6,29.44,WSW,248,0.0,0.0,98,0.00,CLR,,0.00,WeatherDisplay:10.37,2013-09-07 11:34:00,
2013-09-07 03:39:00,49.1,48.6,29.44,ESE,112,0.0,0.0,98,0.00,CLR,,0.00,WeatherDisplay:10.37,2013-09-07 11:39:00,
2013-09-07 03:45:00,49.1,48.6,29.44,WSW,248,0.0,0.0,98,0.00,CLR,,0.00,WeatherDisplay:10.37,2013-09-07 11:45:00,
2013-09-07 03:50:00,49.1,48.6,29.44,South,180,0.0,0.0,98,0.00,CLR,,0.00,WeatherDisplay:10.37,2013-09-07 11:50:00,
2013-09-07 03:55:00,49.1,48.6,29.44,West,270,0.0,0.0,98,0.00,CLR,,0.00,WeatherDisplay:10.37,2013-09-07 11:55:00,
2013-09-07 04:00:00,49.1,48.6,29.44,WNW,292,2.3,0.0,98,0.00,CLR,,0.00,WeatherDisplay:10.37,2013-09-07 12:00:00,
2013-09-07 04:05:00,49.1,48.6,29.44,WNW,292,0.0,0.0,98,0.00,CLR,,0.00,WeatherDisplay:10.37,2013-09-07 12:05:00,
2013-09-07 04:10:00,49.1,48.6,29.44,WNW,292,2.3,2.3,98,0.00,CLR,,0.00,WeatherDisplay:10.37,2013-09-07 12:10:00,
2013-09-07 04:15:00,49.1,48.6,29.47,WNW,292,1.1,1.4,98,0.00,CLR,,0.00,WeatherDisplay:10.37,2013-09-07 12:15:00,
2013-09-07 04:20:00,49.1,48.6,29.47,North,0,0.0,0.0,98,0.00,CLR,,0.00,WeatherDisplay:10.37,2013-09-07 12:20:00,
2013-09-07 04:25:00,49.1,48.6,29.47,North,0,0.0,0.0,98,0.00,CLR,,0.00,WeatherDisplay:10.37,2013-09-07 12:25:00,
2013-09-07 04:30:00,49.1,48.6,29.47,WNW,292,2.3,2.3,98,0.00,CLR,,0.00,WeatherDisplay:10.37,2013-09-07 12:30:00,
2013-09-07 04:35:00,49.1,48.6,29.47,WNW,292,0.0,0.0,98,0.00,CLR,,0.00,WeatherDisplay:10.37,2013-09-07 12:35:00,
2013-09-07 04:40:00,49.1,48.6,29.47,North,0,2.3,2.3,98,0.00,CLR,,0.00,WeatherDisplay:10.37,2013-09-07 12:40:00,
2013-09-07 04:45:00,49.1,48.6,29.47,NW,315,0.0,0.0,98,0.00,CLR,,0.00,WeatherDisplay:10.37,2013-09-07 12:45:00,
2013-09-07 04:50:00,49.1,48.6,29.47,North,0,1.1,1.1,98,0.00,CLR,,0.00,WeatherDisplay:10.37,2013-09-07 12:50:00,
2013-09-07 04:55:00,49.1,48.6,29.47,WNW,292,1.6,1.6,98,0.00,CLR,,0.00,WeatherDisplay:10.37,2013-09-07 12:55:00,
2013-09-07 05:00:00,49.3,48.7,29.47,NNW,338,0.0,0.0,98,0.00,CLR,,0.00,WeatherDisplay:10.37,2013-09-07 13:00:00,
2013-09-07 05:05:00,49.3,48.7,29.47,NW,315,1.1,0.0,98,0.00,CLR,,0.00,WeatherDisplay:10.37,2013-09-07 13:05:00,
2013-09-07 05:10:00,49.3,48.7,29.47,North,0,1.1,0.0,98,0.00,CLR,,0.00,WeatherDisplay:10.37,2013-09-07 13:10:00,
2013-09-07 05:15:00,49.3,48.7,29.47,NNW,338,0.0,0.0,98,0.00,CLR,,0.00,WeatherDisplay:10.37,2013-09-07 13:15:00,
2013-09-07 05:20:00,49.3,48.7,29.47,NNE,22,0.0,0.0,98,0.00,CLR,,0.00,WeatherDisplay:10.37,2013-09-07 13:20:00,
2013-09-07 05:25:00,49.3,48.7,29.47,NNW,338,2.3,2.3,98,0.00,CLR,,0.00,WeatherDisplay:10.37,2013-09-07 13:25:00,
2013-09-07 05:30:00,49.5,48.9,29.47,North,0,2.3,2.3,98,0.00,CLR,,0.00,WeatherDisplay:10.37,2013-09-07 13:30:00,
2013-09-07 05:35:00,49.5,48.9,29.47,North,0,2.3,2.3,98,0.00,CLR,,0.00,WeatherDisplay:10.37,2013-09-07 13:35:00,
2013-09-07 05:40:00,49.5,48.9,29.47,NW,315,0.0,0.0,98,0.00,CLR,,0.00,WeatherDisplay:10.37,2013-09-07 13:40:00,
2013-09-07 05:45:00,49.5,48.9,29.50,NNE,22,0.0,0.0,98,0.00,CLR,,0.00,WeatherDisplay:10.37,2013-09-07 13:45:00,
2013-09-07 05:50:00,49.6,49.1,29.50,NNE,22,0.0,0.0,98,0.00,CLR,,0.00,WeatherDisplay:10.37,2013-09-07 13:50:00,
2013-09-07 05:55:00,49.6,49.1,29.50,NNE,22,0.0,0.0,98,0.00,CLR,,0.00,WeatherDisplay:10.37,2013-09-07 13:55:00,
2013-09-07 06:00:00,49.6,49.1,29.50,NNE,22,0.0,0.0,98,0.00,CLR,,0.00,WeatherDisplay:10.37,2013-09-07 14:00:00,
2013-09-07 06:05:00,49.5,48.9,29.50,NNE,22,0.0,0.0,98,0.00,CLR,,0.00,WeatherDisplay:10.37,2013-09-07 14:05:00,
2013-09-07 06:10:00,49.5,48.9,29.50,NNE,22,0.0,0.0,98,0.00,CLR,,0.00,WeatherDisplay:10.37,2013-09-07 14:10:00,
2013-09-07 06:15:00,49.5,48.9,29.50,NNE,22,1.1,0.0,98,0.00,CLR,,0.00,WeatherDisplay:10.37,2013-09-07 14:15:00,
2013-09-07 06:20:00,49.5,48.9,29.50,NNE,22,0.0,0.0,98,0.00,CLR,,0.00,WeatherDisplay:10.37,2013-09-07 14:20:00,
2013-09-07 06:25:00,49.5,48.9,29.50,West,270,0.0,0.0,98,0.00,CLR,,0.00,WeatherDisplay:10.37,2013-09-07 14:25:00,
2013-09-07 06:30:00,49.5,48.9,29.50,West,270,0.0,0.0,98,0.00,CLR,,0.00,WeatherDisplay:10.37,2013-09-07 14:30:00,
2013-09-07 06:35:00,49.5,48.9,29.50,West,270,0.0,0.0,98,0.00,CLR,,0.00,WeatherDisplay:10.37,2013-09-07 14:35:00,
2013-09-07 06:40:00,49.5,48.9,29.50,West,270,0.0,0.0,98,0.00,CLR,,0.00,WeatherDisplay:10.37,2013-09-07 14:40:00,
2013-09-07 06:45:00,49.5,48.9,29.50,SSW,202,0.0,0.0,98,0.00,CLR,,0.00,WeatherDisplay:10.37,2013-09-07 14:45:00,
2013-09-07 06:50:00,49.5,48.9,29.50,SSW,202,0.0,0.0,98,0.00,CLR,,0.00,WeatherDisplay:10.37,2013-09-07 14:50:00,
2013-09-07 06:55:00,49.5,48.9,29.50,SSW,202,0.0,0.0,98,0.00,CLR,,0.00,WeatherDisplay:10.37,2013-09-07 14:55:00,
2013-09-07 07:00:00,49.5,48.9,29.53,SSW,202,0.0,0.0,98,0.00,CLR,,0.00,WeatherDisplay:10.37,2013-09-07 15:00:00,
2013-09-07 07:05:00,49.5,48.9,29.53,SSW,202,0.0,0.0,98,0.00,CLR,,0.00,WeatherDisplay:10.37,2013-09-07 15:05:00,
2013-09-07 07:10:00,49.5,48.9,29.53,SSW,202,0.0,0.0,98,0.00,CLR,,0.00,WeatherDisplay:10.37,2013-09-07 15:10:00,
2013-09-07 07:15:00,49.5,48.9,29.53,SSW,202,0.0,0.0,98,0.00,CLR,,0.00,WeatherDisplay:10.37,2013-09-07 15:15:00,
2013-09-07 07:20:00,49.5,48.9,29.53,South,180,0.0,0.0,98,0.00,CLR,,0.00,WeatherDisplay:10.37,2013-09-07 15:20:00,
2013-09-07 07:25:00,49.5,48.9,29.53,South,180,0.0,0.0,98,0.00,CLR,,0.00,WeatherDisplay:10.37,2013-09-07 15:25:00,
2013-09-07 07:30:00,49.5,48.9,29.53,South,180,0.0,0.0,98,0.00,CLR,,0.00,WeatherDisplay:10.37,2013-09-07 15:30:00,
2013-09-07 07:35:00,49.6,49.1,29.53,South,180,0.0,0.0,98,0.04,RA,,0.04,WeatherDisplay:10.37,2013-09-07 15:35:00,
2013-09-07 07:40:00,49.8,49.3,29.53,NNW,338,0.0,0.0,98,0.04,RA,,0.04,WeatherDisplay:10.37,2013-09-07 15:40:00,
2013-09-07 07:45:00,49.8,49.3,29.53,NNW,338,0.0,0.0,98,0.04,,,0.04,WeatherDisplay:10.37,2013-09-07 15:45:00,
2013-09-07 07:50:00,49.8,49.3,29.53,NNW,338,0.0,0.0,98,0.04,CLR,,0.04,WeatherDisplay:10.37,2013-09-07 15:50:00,
2013-09-07 07:55:00,49.8,49.3,29.53,NNE,22,0.0,0.0,98,0.04,CLR,,0.04,WeatherDisplay:10.37,2013-09-07 15:55:00,
2013-09-07 08:00:00,49.8,49.3,29.53,NNE,22,0.0,0.0,98,0.04,CLR,,0.04,WeatherDisplay:10.37,2013-09-07 16:00:00,
2013-09-07 08:05:00,50.0,49.5,29.53,NNE,22,0.0,0.0,98,0.04,CLR,,0.04,WeatherDisplay:10.37,2013-09-07 16:05:00,
2013-09-07 08:10:00,50.0,49.5,29.53,West,270,0.0,0.0,98,0.04,CLR,,0.04,WeatherDisplay:10.37,2013-09-07 16:10:00,
2013-09-07 08:15:00,50.0,49.5,29.53,West,270,0.0,0.0,98,0.04,CLR,,0.04,WeatherDisplay:10.37,2013-09-07 16:15:00,
2013-09-07 08:20:00,50.0,49.5,29.53,WNW,292,0.0,0.0,98,0.04,CLR,,0.04,WeatherDisplay:10.37,2013-09-07 16:20:00,
2013-09-07 08:25:00,50.0,49.5,29.53,WNW,292,0.0,0.0,98,0.04,CLR,,0.04,WeatherDisplay:10.37,2013-09-07 16:25:00,
2013-09-07 08:30:00,50.2,49.6,29.53,WNW,292,0.0,0.0,98,0.04,CLR,,0.04,WeatherDisplay:10.37,2013-09-07 16:30:00,
2013-09-07 08:35:00,50.2,49.6,29.53,WNW,292,0.0,0.0,98,0.00,CLR,,0.04,WeatherDisplay:10.37,2013-09-07 16:35:00,
2013-09-07 08:40:00,50.2,49.6,29.53,SSW,202,0.0,0.0,98,0.00,CLR,,0.04,WeatherDisplay:10.37,2013-09-07 16:40:00,
2013-09-07 08:45:00,50.2,49.6,29.56,SSW,202,0.0,0.0,98,0.00,CLR,,0.04,WeatherDisplay:10.37,2013-09-07 16:45:00,
2013-09-07 08:50:00,50.2,49.6,29.56,SSW,202,0.0,0.0,98,0.00,CLR,,0.04,WeatherDisplay:10.37,2013-09-07 16:50:00,
2013-09-07 08:55:00,50.4,49.8,29.56,SSW,202,0.0,0.0,98,0.00,CLR,,0.04,WeatherDisplay:10.37,2013-09-07 16:55:00,
2013-09-07 09:00:00,50.4,49.8,29.56,SSW,202,0.0,0.0,98,0.00,CLR,,0.04,WeatherDisplay:10.37,2013-09-07 17:00:00,
2013-09-07 09:05:00,50.4,49.8,29.56,SSW,202,0.0,0.0,98,0.04,RA,,0.08,WeatherDisplay:10.37,2013-09-07 17:05:00,
2013-09-07 09:10:00,50.5,50.0,29.56,SSW,202,0.0,0.0,98,0.04,RA,,0.08,WeatherDisplay:10.37,2013-09-07 17:10:00,
2013-09-07 09:15:00,50.5,50.0,29.56,SSW,202,0.0,0.0,98,0.04,CLR,,0.08,WeatherDisplay:10.37,2013-09-07 17:15:00,
2013-09-07 09:20:00,50.5,50.0,29.56,SSW,202,0.0,0.0,98,0.04,CLR,,0.08,WeatherDisplay:10.37,2013-09-07 17:20:00,
2013-09-07 09:25:00,50.7,50.2,29.56,SSW,202,0.0,0.0,98,0.04,CLR,,0.08,WeatherDisplay:10.37,2013-09-07 17:25:00,
2013-09-07 09:30:00,50.7,50.2,29.56,SSE,158,0.0,0.0,98,0.04,CLR,,0.08,WeatherDisplay:10.37,2013-09-07 17:30:00,
2013-09-07 09:35:00,50.7,50.2,29.56,SSE,158,0.0,0.0,98,0.04,CLR,,0.08,WeatherDisplay:10.37,2013-09-07 17:35:00,
2013-09-07 09:40:00,50.7,50.2,29.56,SSE,158,0.0,0.0,98,0.04,CLR,,0.08,WeatherDisplay:10.37,2013-09-07 17:40:00,
2013-09-07 09:45:00,50.9,50.4,29.56,SSE,158,0.0,0.0,98,0.04,CLR,,0.08,WeatherDisplay:10.37,2013-09-07 17:45:00,
2013-09-07 09:50:00,50.9,50.4,29.56,SSE,158,0.0,0.0,98,0.04,CLR,,0.08,WeatherDisplay:10.37,2013-09-07 17:50:00,
2013-09-07 09:55:00,50.9,50.4,29.56,NNE,22,0.0,0.0,98,0.04,CLR,,0.08,WeatherDisplay:10.37,2013-09-07 17:55:00,
2013-09-07 10:00:00,50.9,50.4,29.56,NNE,22,0.0,0.0,98,0.04,CLR,,0.08,WeatherDisplay:10.37,2013-09-07 18:00:00,
2013-09-07 10:05:00,50.9,50.4,29.56,NNE,22,0.0,0.0,98,0.00,CLR,,0.08,WeatherDisplay:10.37,2013-09-07 18:05:00,
2013-09-07 10:10:00,51.1,50.5,29.56,NNW,338,0.0,0.0,98,0.00,CLR,,0.08,WeatherDisplay:10.37,2013-09-07 18:10:00,
2013-09-07 10:15:00,51.1,50.5,29.59,NNW,338,0.0,0.0,98,0.00,CLR,,0.08,WeatherDisplay:10.37,2013-09-07 18:15:00,
2013-09-07 10:20:00,51.1,50.5,29.59,NNW,338,0.0,0.0,98,0.00,CLR,,0.08,WeatherDisplay:10.37,2013-09-07 18:20:00,
2013-09-07 10:25:00,51.1,50.5,29.59,NNW,338,0.0,0.0,98,0.00,CLR,,0.08,WeatherDisplay:10.37,2013-09-07 18:25:00,
2013-09-07 10:30:00,51.3,50.7,29.59,NNW,338,0.0,0.0,98,0.04,RA,,0.12,WeatherDisplay:10.37,2013-09-07 18:30:00,
2013-09-07 10:35:00,51.3,50.7,29.59,NNW,338,0.0,0.0,98,0.04,RA,,0.12,WeatherDisplay:10.37,2013-09-07 18:35:00,
2013-09-07 10:40:00,51.3,50.7,29.59,NNW,338,0.0,0.0,98,0.04,,,0.12,WeatherDisplay:10.37,2013-09-07 18:40:00,
2013-09-07 10:45:00,51.4,50.9,29.59,NNW,338,0.0,0.0,98,0.04,CLR,,0.12,WeatherDisplay:10.37,2013-09-07 18:45:00,
2013-09-07 10:50:00,51.4,50.9,29.59,NNW,338,0.0,0.0,98,0.04,CLR,,0.12,WeatherDisplay:10.37,2013-09-07 18:50:00,
2013-09-07 10:55:00,51.6,51.1,29.59,NNW,338,0.0,0.0,98,0.04,CLR,,0.12,WeatherDisplay:10.37,2013-09-07 18:55:00,
2013-09-07 11:00:00,51.6,51.1,29.59,NNW,338,0.0,0.0,98,0.04,CLR,,0.12,WeatherDisplay:10.37,2013-09-07 19:00:00,
2013-09-07 11:05:00,51.6,51.1,29.59,NNW,338,0.0,0.0,98,0.04,CLR,,0.12,WeatherDisplay:10.37,2013-09-07 19:05:00,
2013-09-07 11:10:00,51.8,51.3,29.59,NNE,22,0.0,0.0,98,0.04,CLR,,0.12,WeatherDisplay:10.37,2013-09-07 19:10:00,
2013-09-07 11:15:00,52.2,51.6,29.59,NNE,22,0.0,0.0,98,0.04,CLR,,0.12,WeatherDisplay:10.37,2013-09-07 19:15:00,
2013-09-07 11:20:00,52.3,51.8,29.59,North,0,0.0,0.0,98,0.04,CLR,,0.12,WeatherDisplay:10.37,2013-09-07 19:20:00,
2013-09-07 11:25:00,52.5,52.0,29.59,North,0,0.0,0.0,98,0.04,CLR,,0.12,WeatherDisplay:10.37,2013-09-07 19:25:00,
2013-09-07 11:30:00,52.9,52.3,29.59,North,0,0.0,0.0,98,0.00,CLR,,0.12,WeatherDisplay:10.37,2013-09-07 19:30:00,
2013-09-07 11:35:00,52.9,52.3,29.59,North,0,0.0,0.0,98,0.00,CLR,,0.12,WeatherDisplay:10.37,2013-09-07 19:35:00,
2013-09-07 11:40:00,53.1,52.5,29.59,NW,315,0.0,0.0,98,0.00,CLR,,0.12,WeatherDisplay:10.37,2013-09-07 19:40:00,
2013-09-07 11:45:00,53.1,52.5,29.59,NNE,22,0.0,0.0,98,0.00,CLR,,0.12,WeatherDisplay:10.37,2013-09-07 19:45:00,
2013-09-07 11:50:00,53.2,52.7,29.59,NNE,22,0.0,0.0,98,0.00,CLR,,0.12,WeatherDisplay:10.37,2013-09-07 19:50:00,
2013-09-07 11:55:00,53.6,53.0,29.59,NNE,22,2.3,2.3,98,0.00,CLR,,0.12,WeatherDisplay:10.37,2013-09-07 19:55:00,
2013-09-07 12:00:00,53.8,53.2,29.59,NE,45,2.6,2.6,98,0.00,CLR,,0.12,WeatherDisplay:10.37,2013-09-07 20:00:00,
2013-09-07 12:05:00,54.0,53.4,29.59,NE,45,2.3,2.3,98,0.00,CLR,,0.12,WeatherDisplay:10.37,2013-09-07 20:05:00,
2013-09-07 12:10:00,54.5,53.9,29.59,NE,45,1.1,0.0,98,0.00,CLR,,0.12,WeatherDisplay:10.37,2013-09-07 20:10:00,
2013-09-07 12:15:00,55.0,54.5,29.59,ENE,68,2.3,2.3,98,0.00,CLR,,0.12,WeatherDisplay:10.37,2013-09-07 20:15:00,
2013-09-07 12:20:00,55.6,55.0,29.59,East,90,4.0,4.0,98,0.00,CLR,,0.12,WeatherDisplay:10.37,2013-09-07 20:20:00,
2013-09-07 12:25:00,55.6,55.0,29.59,ENE,68,1.1,1.1,98,0.00,CLR,,0.12,WeatherDisplay:10.37,2013-09-07 20:25:00,
2013-09-07 12:30:00,55.8,54.9,29.59,NNE,22,1.1,0.0,97,0.00,CLR,,0.12,WeatherDisplay:10.37,2013-09-07 20:30:00,
2013-09-07 12:35:00,55.9,55.1,29.59,NE,45,0.9,0.0,97,0.00,CLR,,0.12,WeatherDisplay:10.37,2013-09-07 20:35:00,
2013-09-07 12:40:00,56.1,55.0,29.59,NE,45,1.6,0.0,96,0.00,CLR,,0.12,WeatherDisplay:10.37,2013-09-07 20:40:00,
2013-09-07 12:45:00,56.1,54.7,29.59,NE,45,2.3,2.3,95,0.00,CLR,,0.12,WeatherDisplay:10.37,2013-09-07 20:45:00,
2013-09-07 12:50:00,56.3,54.9,29.59,East,90,1.1,0.0,95,0.00,CLR,,0.12,WeatherDisplay:10.37,2013-09-07 20:50:00,
2013-09-07 12:55:00,56.7,55.2,29.59,East,90,1.1,0.0,95,0.00,CLR,,0.12,WeatherDisplay:10.37,2013-09-07 20:55:00,
2013-09-07 13:01:00,57.2,55.5,29.59,East,90,2.3,0.0,94,0.00,CLR,,0.12,WeatherDisplay:10.37,2013-09-07 21:01:00,
2013-09-07 13:06:00,57.2,54.6,29.59,NNW,338,2.3,2.3,91,0.00,CLR,,0.12,WeatherDisplay:10.37,2013-09-07 21:06:00,
2013-09-07 13:11:00,57.4,54.2,29.59,NNW,338,2.3,2.3,89,0.00,CLR,,0.12,WeatherDisplay:10.37,2013-09-07 21:11:00,
2013-09-07 13:16:00,57.2,53.0,29.59,North,0,2.3,2.3,86,0.00,CLR,,0.12,WeatherDisplay:10.37,2013-09-07 21:16:00,
2013-09-07 13:21:00,57.4,53.5,29.59,North,0,2.3,2.3,87,0.00,CLR,,0.12,WeatherDisplay:10.37,2013-09-07 21:21:00,
2013-09-07 13:26:00,58.1,53.6,29.59,NE,45,2.3,2.3,85,0.00,CLR,,0.12,WeatherDisplay:10.37,2013-09-07 21:26:00,
2013-09-07 13:31:00,58.1,53.6,29.59,NE,45,1.1,1.1,85,0.00,CLR,,0.12,WeatherDisplay:10.37,2013-09-07 21:31:00,
2013-09-07 13:36:00,58.3,54.1,29.59,NE,45,0.0,0.0,86,0.00,CLR,,0.12,WeatherDisplay:10.37,2013-09-07 21:36:00,
2013-09-07 13:41:00,58.8,53.3,29.59,North,0,2.4,2.4,82,0.00,CLR,,0.12,WeatherDisplay:10.37,2013-09-07 21:41:00,
2013-09-07 13:46:00,58.5,53.6,29.59,NNW,338,0.0,1.1,84,0.00,CLR,,0.12,WeatherDisplay:10.37,2013-09-07 21:46:00,
2013-09-07 13:51:00,58.3,53.5,29.59,NNE,22,1.1,1.1,84,0.00,CLR,,0.12,WeatherDisplay:10.37,2013-09-07 21:51:00,
2013-09-07 13:56:00,58.5,54.0,29.59,NE,45,2.3,0.0,85,0.00,CLR,,0.12,WeatherDisplay:10.37,2013-09-07 21:56:00,
2013-09-07 14:01:00,58.5,53.3,29.59,NE,45,0.0,0.0,83,0.00,CLR,,0.12,WeatherDisplay:10.37,2013-09-07 22:01:00,
2013-09-07 14:06:00,58.3,52.8,29.59,NNW,338,1.6,1.6,82,0.00,CLR,,0.12,WeatherDisplay:10.37,2013-09-07 22:06:00,
2013-09-07 14:11:00,58.5,53.3,29.59,NNW,338,0.0,1.1,83,0.00,CLR,,0.12,WeatherDisplay:10.37,2013-09-07 22:11:00,
2013-09-07 14:16:00,58.8,53.7,29.59,NNW,338,0.0,0.0,83,0.00,CLR,,0.12,WeatherDisplay:10.37,2013-09-07 22:16:00,
2013-09-07 14:21:00,58.8,53.7,29.59,NNW,338,0.0,0.0,83,0.00,CLR,,0.12,WeatherDisplay:10.37,2013-09-07 22:21:00,
2013-09-07 14:26:00,58.8,53.3,29.59,NNW,338,1.4,1.4,82,0.00,CLR,,0.12,WeatherDisplay:10.37,2013-09-07 22:26:00,
2013-09-07 14:31:00,58.8,53.0,29.59,NNW,338,1.4,1.4,81,0.00,CLR,,0.12,WeatherDisplay:10.37,2013-09-07 22:31:00,
2013-09-07 14:36:00,58.6,53.5,29.59,West,270,1.1,1.1,83,0.00,CLR,,0.12,WeatherDisplay:10.37,2013-09-07 22:36:00,
2013-09-07 14:41:00,59.0,53.8,29.59,North,0,0.0,0.0,83,0.00,CLR,,0.12,WeatherDisplay:10.37,2013-09-07 22:41:00,
2013-09-07 14:46:00,59.4,54.5,29.59,North,0,0.0,0.0,84,0.00,CLR,,0.12,WeatherDisplay:10.37,2013-09-07 22:46:00,
2013-09-07 14:51:00,59.4,54.2,29.59,NNE,22,1.1,0.0,83,0.00,CLR,,0.12,WeatherDisplay:10.37,2013-09-07 22:51:00,
2013-09-07 14:56:00,59.2,54.0,29.59,NE,45,1.1,0.0,83,0.00,CLR,,0.12,WeatherDisplay:10.37,2013-09-07 22:56:00,
2013-09-07 15:01:00,59.4,53.9,29.56,NE,45,0.0,0.0,82,0.00,CLR,,0.12,WeatherDisplay:10.37,2013-09-07 23:01:00,
2013-09-07 15:06:00,59.4,53.9,29.56,NE,45,0.0,0.0,82,0.00,CLR,,0.12,WeatherDisplay:10.37,2013-09-07 23:06:00,
2013-09-07 15:11:00,59.7,54.2,29.56,NE,45,0.0,0.0,82,0.00,CLR,,0.12,WeatherDisplay:10.37,2013-09-07 23:11:00,
2013-09-07 15:16:00,60.3,55.1,29.59,SSW,202,0.0,0.0,83,0.00,CLR,,0.12,WeatherDisplay:10.37,2013-09-07 23:16:00,
2013-09-07 15:21:00,60.4,54.9,29.59,NNE,22,2.3,0.0,82,0.00,CLR,,0.12,WeatherDisplay:10.37,2013-09-07 23:21:00,
2013-09-07 15:26:00,60.4,54.2,29.59,NNE,22,2.3,0.0,80,0.00,CLR,,0.12,WeatherDisplay:10.37,2013-09-07 23:26:00,
2013-09-07 15:31:00,60.1,51.8,29.56,NNE,22,2.3,0.0,74,0.00,CLR,,0.12,WeatherDisplay:10.37,2013-09-07 23:31:00,
2013-09-07 15:36:00,60.3,53.4,29.56,NNE,22,2.3,0.0,78,0.00,CLR,,0.12,WeatherDisplay:10.37,2013-09-07 23:36:00,
2013-09-07 15:41:00,60.4,53.9,29.56,NW,315,0.0,0.0,79,0.00,CLR,,0.12,WeatherDisplay:10.37,2013-09-07 23:41:00,
2013-09-07 15:46:00,60.3,52.7,29.56,NW,315,0.0,0.0,76,0.00,CLR,,0.12,WeatherDisplay:10.37,2013-09-07 23:46:00,
2013-09-07 15:51:00,59.9,52.7,29.56,NW,315,0.0,0.0,77,0.00,CLR,,0.12,WeatherDisplay:10.37,2013-09-07 23:51:00,
2013-09-07 15:56:00,60.1,53.5,29.56,WNW,292,0.0,0.0,79,0.00,CLR,,0.12,WeatherDisplay:10.37,2013-09-07 23:56:00,
2013-09-07 16:01:00,60.1,53.5,29.56,WNW,292,0.0,0.0,79,0.00,CLR,,0.12,WeatherDisplay:10.37,2013-09-08 00:01:00,
2013-09-07 16:06:00,60.1,53.2,29.56,WNW,292,0.0,0.0,78,0.00,CLR,,0.12,WeatherDisplay:10.37,2013-09-08 00:06:00,
2013-09-07 16:11:00,60.3,53.7,29.56,WNW,292,0.0,0.0,79,0.00,CLR,,0.12,WeatherDisplay:10.37,2013-09-08 00:11:00,
2013-09-07 16:16:00,60.4,53.5,29.56,WNW,292,0.0,0.0,78,0.00,CLR,,0.12,WeatherDisplay:10.37,2013-09-08 00:16:00,
2013-09-07 16:21:00,60.6,54.1,29.56,WNW,292,0.0,0.0,79,0.00,CLR,,0.12,WeatherDisplay:10.37,2013-09-08 00:21:00,
2013-09-07 16:26:00,60.4,53.9,29.56,WNW,292,0.0,0.0,79,0.00,CLR,,0.12,WeatherDisplay:10.37,2013-09-08 00:26:00,
2013-09-07 16:31:00,60.4,53.2,29.56,WNW,292,0.0,0.0,77,0.00,CLR,,0.12,WeatherDisplay:10.37,2013-09-08 00:31:00,
2013-09-07 16:36:00,60.3,53.4,29.56,WNW,292,0.0,0.0,78,0.00,CLR,,0.12,WeatherDisplay:10.37,2013-09-08 00:36:00,
2013-09-07 16:41:00,59.9,53.0,29.56,WNW,292,0.0,0.0,78,0.00,CLR,,0.12,WeatherDisplay:10.37,2013-09-08 00:41:00,
2013-09-07 16:46:00,59.7,52.8,29.56,WNW,292,0.0,0.0,78,0.00,CLR,,0.12,WeatherDisplay:10.37,2013-09-08 00:46:00,
2013-09-07 16:51:00,59.5,52.7,29.56,WNW,292,0.0,0.0,78,0.00,CLR,,0.12,WeatherDisplay:10.37,2013-09-08 00:51:00,
2013-09-07 16:56:00,59.2,52.3,29.56,WNW,292,0.0,0.0,78,0.00,CLR,,0.12,WeatherDisplay:10.37,2013-09-08 00:56:00,
2013-09-07 17:01:00,59.0,52.5,29.53,WNW,292,0.0,0.0,79,0.00,CLR,,0.12,WeatherDisplay:10.37,2013-09-08 01:01:00,
2013-09-07 17:06:00,58.8,52.7,29.53,WNW,292,0.0,0.0,80,0.00,CLR,,0.12,WeatherDisplay:10.37,2013-09-08 01:06:00,
2013-09-07 17:11:00,59.0,53.2,29.53,WNW,292,0.0,0.0,81,0.00,CLR,,0.12,WeatherDisplay:10.37,2013-09-08 01:11:00,
2013-09-07 17:16:00,59.2,53.4,29.53,WNW,292,0.0,0.0,81,0.00,CLR,,0.12,WeatherDisplay:10.37,2013-09-08 01:16:00,
2013-09-07 17:21:00,59.2,53.4,29.53,WNW,292,0.0,0.0,81,0.00,CLR,,0.12,WeatherDisplay:10.37,2013-09-08 01:21:00,
2013-09-07 17:26:00,59.0,53.2,29.53,WNW,292,0.0,0.0,81,0.00,CLR,,0.12,WeatherDisplay:10.37,2013-09-08 01:26:00,
2013-09-07 17:31:00,58.8,53.3,29.53,WNW,292,0.0,0.0,82,0.00,CLR,,0.12,WeatherDisplay:10.37,2013-09-08 01:31:00,
2013-09-07 17:36:00,58.3,52.8,29.53,WNW,292,0.0,0.0,82,0.00,CLR,,0.12,WeatherDisplay:10.37,2013-09-08 01:36:00,
2013-09-07 17:41:00,58.3,52.8,29.53,WNW,292,0.0,0.0,82,0.00,CLR,,0.12,WeatherDisplay:10.37,2013-09-08 01:41:00,
2013-09-07 17:46:00,58.3,53.1,29.53,WNW,292,0.0,0.0,83,0.00,CLR,,0.12,WeatherDisplay:10.37,2013-09-08 01:46:00,
2013-09-07 17:51:00,58.1,53.0,29.53,WNW,292,0.0,0.0,83,0.00,CLR,,0.12,WeatherDisplay:10.37,2013-09-08 01:51:00,
2013-09-07 17:56:00,57.9,53.1,29.53,WNW,292,0.0,0.0,84,0.00,CLR,,0.12,WeatherDisplay:10.37,2013-09-08 01:56:00,
2013-09-07 18:01:00,57.9,53.1,29.53,WNW,292,0.0,0.0,84,0.00,CLR,,0.12,WeatherDisplay:10.37,2013-09-08 02:01:00,
2013-09-07 18:06:00,58.1,53.6,29.53,WNW,292,0.0,0.0,85,0.00,CLR,,0.12,WeatherDisplay:10.37,2013-09-08 02:06:00,
2013-09-07 18:11:00,57.9,53.4,29.53,WNW,292,0.0,0.0,85,0.00,CLR,,0.12,WeatherDisplay:10.37,2013-09-08 02:11:00,
2013-09-07 18:16:00,57.9,53.4,29.50,WNW,292,0.0,0.0,85,0.00,CLR,,0.12,WeatherDisplay:10.37,2013-09-08 02:16:00,
2013-09-07 18:21:00,57.9,53.4,29.50,WNW,292,0.0,0.0,85,0.00,CLR,,0.12,WeatherDisplay:10.37,2013-09-08 02:21:00,
2013-09-07 18:26:00,57.9,53.4,29.50,WNW,292,0.0,0.0,85,0.00,CLR,,0.12,WeatherDisplay:10.37,2013-09-08 02:26:00,
2013-09-07 18:31:00,57.9,53.8,29.50,WNW,292,0.0,0.0,86,0.00,CLR,,0.12,WeatherDisplay:10.37,2013-09-08 02:31:00,
2013-09-07 18:36:00,57.9,53.8,29.50,WNW,292,0.0,0.0,86,0.00,CLR,,0.12,WeatherDisplay:10.37,2013-09-08 02:36:00,
2013-09-07 18:41:00,57.9,53.8,29.50,WNW,292,0.0,0.0,86,0.00,CLR,,0.12,WeatherDisplay:10.37,2013-09-08 02:41:00,
2013-09-07 18:46:00,57.7,53.6,29.50,WNW,292,0.0,0.0,86,0.00,CLR,,0.12,WeatherDisplay:10.37,2013-09-08 02:46:00,